Time,TemperatureF,DewpointF,PressureIn,WindDirection,WindDirectionDegrees,WindSpeedMPH,WindSpeedGustMPH,Humidity,HourlyPrecipIn,Conditions,Clouds,dailyrainin,SoftwareType,DateUTC
2013-09-22 00:01:00,75.7,70.5,29.75,SSW,202,0.0,0.0,84,0.00,FEW,,0.00,WeatherDisplay:10.37,2013-09-22 04:01:00,
2013-09-22 00:02:00,75.9,70.7,29.77,SW,225,0.0,0.0,84,0.00,FEW,,0.00,WeatherDisplay:10.37,2013-09-22 04:02:00,
2013-09-22 00:07:00,75.9,70.7,29.77,SW,225,0.0,0.0,84,0.00,FEW,,0.00,WeatherDisplay:10.37,2013-09-22 04:07:00,
2013-09-22 00:12:00,75.9,70.7,29.77,SSW,202,3.5,0.0,84,0.00,FEW,,0.00,WeatherDisplay:10.37,2013-09-22 04:12:00,
2013-09-22 00:17:00,75.9,70.7,29.75,WSW,248,0.0,0.0,84,0.00,FEW,,0.00,WeatherDisplay:10.37,2013-09-22 04:17:00,
2013-09-22 00:22:00,75.9,71.1,29.77,SSE,158,0.0,0.0,85,0.00,SCT,,0.00,WeatherDisplay:10.37,2013-09-22 04:22:00,
2013-09-22 00:27:00,75.7,70.9,29.77,SW,225,0.0,0.0,85,0.00,SCT,,0.00,WeatherDisplay:10.37,2013-09-22 04:27:00,
2013-09-22 00:32:00,75.7,70.5,29.77,SSW,202,0.0,0.0,84,0.00,SCT,,0.00,WeatherDisplay:10.37,2013-09-22 04:32:00,
2013-09-22 00:37:00,75.7,70.2,29.77,SW,225,0.0,0.0,83,0.00,SCT,,0.00,WeatherDisplay:10.37,2013-09-22 04:37:00,
2013-09-22 00:42:00,75.7,70.2,29.77,South,180,0.0,0.0,83,0.00,SCT,,0.00,WeatherDisplay:10.37,2013-09-22 04:42:00,
2013-09-22 00:47:00,75.7,70.2,29.77,SSW,202,0.0,0.0,83,0.00,SCT,,0.00,WeatherDisplay:10.37,2013-09-22 04:47:00,
2013-09-22 00:52:00,75.7,70.2,29.77,WSW,248,4.0,4.0,83,0.00,SCT,,0.00,WeatherDisplay:10.37,2013-09-22 04:52:00,
2013-09-22 00:57:00,75.7,69.8,29.77,WSW,248,4.6,4.6,82,0.00,SCT,,0.00,WeatherDisplay:10.37,2013-09-22 04:57:00,
2013-09-22 01:02:00,75.7,69.8,29.77,SW,225,4.6,4.6,82,0.00,SCT,,0.00,WeatherDisplay:10.37,2013-09-22 05:02:00,
2013-09-22 01:07:00,75.7,70.2,29.77,SW,225,0.0,0.0,83,0.00,SCT,,0.00,WeatherDisplay:10.37,2013-09-22 05:07:00,
2013-09-22 01:12:00,75.7,70.2,29.75,SSW,202,0.0,0.5,83,0.00,SCT,,0.00,WeatherDisplay:10.37,2013-09-22 05:12:00,
2013-09-22 01:17:00,75.6,70.4,29.75,SW,225,3.5,3.5,84,0.00,SCT,,0.00,WeatherDisplay:10.37,2013-09-22 05:17:00,
2013-09-22 01:22:00,75.4,70.2,29.75,SW,225,0.0,0.0,84,0.00,SCT,,0.00,WeatherDisplay:10.37,2013-09-22 05:22:00,
2013-09-22 01:27:00,75.4,70.6,29.74,WSW,248,0.0,0.0,85,0.00,SCT,,0.00,WeatherDisplay:10.37,2013-09-22 05:27:00,
2013-09-22 01:32:00,75.2,70.4,29.75,WSW,248,0.0,0.0,85,0.00,SCT,,0.00,WeatherDisplay:10.37,2013-09-22 05:32:00,
2013-09-22 01:37:00,75.0,70.5,29.74,SW,225,0.0,0.0,86,0.00,SCT,,0.00,WeatherDisplay:10.37,2013-09-22 05:37:00,
2013-09-22 01:42:00,75.0,70.5,29.75,SSW,202,0.0,0.0,86,0.00,SCT,,0.00,WeatherDisplay:10.37,2013-09-22 05:42:00,
2013-09-22 01:47:00,75.0,70.5,29.74,SSW,202,0.0,0.0,86,0.00,SCT,,0.00,WeatherDisplay:10.37,2013-09-22 05:47:00,
2013-09-22 01:52:00,75.0,70.2,29.75,SW,225,3.5,3.5,85,0.00,SCT,,0.00,WeatherDisplay:10.37,2013-09-22 05:52:00,
2013-09-22 01:57:00,75.0,70.2,29.75,SW,225,3.5,3.5,85,0.00,SCT,,0.00,WeatherDisplay:10.37,2013-09-22 05:57:00,
2013-09-22 02:03:00,75.2,70.4,29.75,SSW,202,0.0,0.0,85,0.00,SCT,,0.00,WeatherDisplay:10.37,2013-09-22 06:03:00,
2013-09-22 02:08:00,75.2,70.4,29.75,SW,225,4.6,4.6,85,0.00,SCT,,0.00,WeatherDisplay:10.37,2013-09-22 06:08:00,
2013-09-22 02:13:00,75.2,70.0,29.75,SW,225,4.0,4.4,84,0.00,SCT,,0.00,WeatherDisplay:10.37,2013-09-22 06:13:00,
2013-09-22 02:18:00,75.4,70.2,29.75,SSW,202,4.6,0.0,84,0.00,SCT,,0.00,WeatherDisplay:10.37,2013-09-22 06:18:00,
2013-09-22 02:23:00,75.4,70.6,29.75,SW,225,0.0,0.0,85,0.00,-RA,,0.00,WeatherDisplay:10.37,2013-09-22 06:23:00,
2013-09-22 02:28:00,75.2,71.1,29.75,SSW,202,0.0,0.0,87,0.00,-RA,,0.00,WeatherDisplay:10.37,2013-09-22 06:28:00,
2013-09-22 02:33:00,75.0,71.2,29.75,SW,225,3.5,3.5,88,0.00,-RA,,0.00,WeatherDisplay:10.37,2013-09-22 06:33:00,
2013-09-22 02:38:00,74.8,71.3,29.75,WSW,248,3.5,3.5,89,0.01,-RA,,0.01,WeatherDisplay:10.37,2013-09-22 06:38:00,
2013-09-22 02:43:00,74.7,71.6,29.74,SSW,202,0.0,0.7,90,0.01,-RA,,0.01,WeatherDisplay:10.37,2013-09-22 06:43:00,
2013-09-22 02:48:00,74.3,71.5,29.74,SW,225,4.0,4.0,91,0.02,-RA,,0.02,WeatherDisplay:10.37,2013-09-22 06:48:00,
2013-09-22 02:53:00,74.1,71.3,29.73,SSW,202,0.0,0.0,91,0.02,-RA,,0.02,WeatherDisplay:10.37,2013-09-22 06:53:00,
2013-09-22 02:58:00,73.9,71.4,29.73,South,180,0.0,0.0,92,0.03,-RA,,0.03,WeatherDisplay:10.37,2013-09-22 06:58:00,
2013-09-22 03:03:00,73.8,71.3,29.73,SW,225,0.0,0.0,92,0.03,-RA,,0.03,WeatherDisplay:10.37,2013-09-22 07:03:00,
2013-09-22 03:08:00,73.8,71.6,29.73,NE,45,0.0,0.0,93,0.04,-RA,,0.04,WeatherDisplay:10.37,2013-09-22 07:08:00,
2013-09-22 03:13:00,73.8,72.0,29.72,SW,225,0.0,0.0,94,0.05,-RA,,0.05,WeatherDisplay:10.37,2013-09-22 07:13:00,
2013-09-22 03:18:00,73.6,71.8,29.72,SE,135,0.0,0.0,94,0.06,-RA,,0.06,WeatherDisplay:10.37,2013-09-22 07:18:00,
2013-09-22 03:23:00,73.4,71.6,29.72,SW,225,0.0,0.0,94,0.07,-RA,,0.07,WeatherDisplay:10.37,2013-09-22 07:23:00,
2013-09-22 03:28:00,73.4,71.9,29.72,SSW,202,0.0,0.0,95,0.07,-RA,,0.08,WeatherDisplay:10.37,2013-09-22 07:28:00,
2013-09-22 03:33:00,73.4,71.9,29.72,SW,225,3.5,0.0,95,0.08,-RA,,0.08,WeatherDisplay:10.37,2013-09-22 07:33:00,
2013-09-22 03:38:00,73.4,71.9,29.72,WSW,248,0.0,0.0,95,0.08,-RA,,0.09,WeatherDisplay:10.37,2013-09-22 07:38:00,
2013-09-22 03:43:00,73.4,71.9,29.72,SSE,158,0.0,0.0,95,0.09,-RA,,0.10,WeatherDisplay:10.37,2013-09-22 07:43:00,
2013-09-22 03:48:00,73.2,71.7,29.74,SE,135,0.0,0.0,95,0.08,-RA,,0.11,WeatherDisplay:10.37,2013-09-22 07:48:00,
2013-09-22 03:53:00,73.2,71.7,29.73,West,270,0.0,0.0,95,0.10,-RA,,0.12,WeatherDisplay:10.37,2013-09-22 07:53:00,
2013-09-22 03:58:00,73.2,71.7,29.73,SW,225,5.0,5.0,95,0.09,-RA,,0.12,WeatherDisplay:10.37,2013-09-22 07:58:00,
2013-09-22 04:03:00,73.2,71.7,29.73,SW,225,3.5,3.5,95,0.09,-RA,,0.12,WeatherDisplay:10.37,2013-09-22 08:03:00,
2013-09-22 04:08:00,72.9,71.4,29.73,SSE,158,0.0,0.0,95,0.09,-RA,,0.13,WeatherDisplay:10.37,2013-09-22 08:08:00,
2013-09-22 04:13:00,72.5,71.0,29.73,South,180,0.0,0.0,95,0.08,-RA,,0.13,WeatherDisplay:10.37,2013-09-22 08:13:00,
2013-09-22 04:18:00,72.3,70.5,29.73,South,180,0.0,0.0,94,0.07,-RA,,0.13,WeatherDisplay:10.37,2013-09-22 08:18:00,
2013-09-22 04:23:00,72.0,69.9,29.72,WSW,248,0.0,0.0,93,0.07,RA,,0.14,WeatherDisplay:10.37,2013-09-22 08:23:00,
2013-09-22 04:28:00,71.6,69.5,29.71,SSW,202,0.0,0.0,93,0.06,RA,,0.14,WeatherDisplay:10.37,2013-09-22 08:28:00,
2013-09-22 04:33:00,71.6,69.5,29.72,SE,135,0.0,0.0,93,0.07,RA,,0.15,WeatherDisplay:10.37,2013-09-22 08:33:00,
2013-09-22 04:39:00,71.4,69.3,29.72,ESE,112,0.0,0.0,93,0.06,RA,,0.15,WeatherDisplay:10.37,2013-09-22 08:39:00,
2013-09-22 04:43:00,71.2,69.4,29.72,NE,45,0.0,0.0,94,0.06,-RA,,0.16,WeatherDisplay:10.37,2013-09-22 08:43:00,
2013-09-22 04:49:00,71.1,69.3,29.72,ESE,112,0.0,0.0,94,0.05,-RA,,0.16,WeatherDisplay:10.37,2013-09-22 08:49:00,
2013-09-22 04:54:00,70.9,69.4,29.72,ESE,112,0.0,0.0,95,0.04,-RA,,0.16,WeatherDisplay:10.37,2013-09-22 08:54:00,
2013-09-22 04:59:00,70.9,69.4,29.72,West,270,0.0,0.0,95,0.04,-RA,,0.16,WeatherDisplay:10.37,2013-09-22 08:59:00,
2013-09-22 05:04:00,70.9,69.4,29.72,West,270,0.0,0.0,95,0.04,-RA,,0.16,WeatherDisplay:10.37,2013-09-22 09:04:00,
2013-09-22 05:09:00,70.9,69.4,29.72,South,180,0.0,0.0,95,0.03,-RA,,0.16,WeatherDisplay:10.37,2013-09-22 09:09:00,
2013-09-22 05:14:00,70.9,69.7,29.71,NNE,22,0.0,0.0,96,0.03,-RA,,0.16,WeatherDisplay:10.37,2013-09-22 09:14:00,
2013-09-22 05:19:00,70.9,70.0,29.70,South,180,0.0,0.0,97,0.03,-RA,,0.16,WeatherDisplay:10.37,2013-09-22 09:19:00,
2013-09-22 05:24:00,70.9,70.0,29.70,ESE,112,0.0,0.0,97,0.03,-RA,,0.17,WeatherDisplay:10.37,2013-09-22 09:24:00,
2013-09-22 05:29:00,71.1,70.2,29.69,North,360,0.0,0.0,97,0.03,-RA,,0.17,WeatherDisplay:10.37,2013-09-22 09:29:00,
2013-09-22 05:34:00,71.2,70.3,29.69,SE,135,3.5,3.5,97,0.02,-RA,,0.17,WeatherDisplay:10.37,2013-09-22 09:34:00,
2013-09-22 05:39:00,71.2,70.3,29.69,South,180,0.0,0.0,97,0.02,-RA,,0.17,WeatherDisplay:10.37,2013-09-22 09:39:00,
2013-09-22 05:44:00,71.2,70.3,29.69,South,180,3.5,3.5,97,0.01,-RA,,0.17,WeatherDisplay:10.37,2013-09-22 09:44:00,
2013-09-22 05:49:00,71.1,70.2,29.69,South,180,3.5,0.0,97,0.01,-RA,,0.17,WeatherDisplay:10.37,2013-09-22 09:49:00,
2013-09-22 05:54:00,71.1,70.2,29.71,SSW,202,0.0,0.0,97,0.02,-RA,,0.18,WeatherDisplay:10.37,2013-09-22 09:54:00,
2013-09-22 05:59:00,71.1,70.2,29.71,SSW,202,0.0,0.0,97,0.03,-RA,,0.19,WeatherDisplay:10.37,2013-09-22 09:59:00,
2013-09-22 06:04:00,71.4,70.5,29.71,South,180,3.5,3.5,97,0.04,-RA,,0.20,WeatherDisplay:10.37,2013-09-22 10:04:00,
2013-09-22 06:09:00,71.4,70.5,29.71,SW,225,4.6,4.6,97,0.05,-RA,,0.21,WeatherDisplay:10.37,2013-09-22 10:09:00,
2013-09-22 06:14:00,70.7,69.5,29.70,SW,225,4.6,4.6,96,0.08,-RA,,0.24,WeatherDisplay:10.37,2013-09-22 10:14:00,
2013-09-22 06:19:00,70.3,68.8,29.70,SSE,158,0.0,0.0,95,0.10,-RA,,0.26,WeatherDisplay:10.37,2013-09-22 10:19:00,
2013-09-22 06:24:00,70.0,68.2,29.69,North,360,6.9,6.9,94,0.10,-RA,,0.29,WeatherDisplay:10.37,2013-09-22 10:24:00,
2013-09-22 06:29:00,69.6,67.8,29.69,SSW,202,5.8,5.8,94,0.15,-RA,,0.32,WeatherDisplay:10.37,2013-09-22 10:29:00,
2013-09-22 06:34:00,69.6,68.1,29.69,NNW,338,6.9,6.9,95,0.22, +RA,,0.39,WeatherDisplay:10.37,2013-09-22 10:34:00,
2013-09-22 06:39:00,69.6,68.4,29.69,NW,315,0.0,0.0,96,0.24, +RA,,0.41,WeatherDisplay:10.37,2013-09-22 10:39:00,
2013-09-22 06:44:00,69.6,68.4,29.69,SW,225,5.8,5.8,96,0.33, +RA,,0.50,WeatherDisplay:10.37,2013-09-22 10:44:00,
2013-09-22 06:49:00,69.6,68.7,29.72,WSW,248,6.9,6.9,97,0.36, +RA,,0.54,WeatherDisplay:10.37,2013-09-22 10:49:00,
2013-09-22 06:54:00,69.6,68.7,29.71,East,90,4.6,4.6,97,0.37, +RA,,0.56,WeatherDisplay:10.37,2013-09-22 10:54:00,
2013-09-22 06:59:00,69.6,69.0,29.71,ESE,112,6.9,6.9,98,0.46, +RA,,0.65,WeatherDisplay:10.37,2013-09-22 10:59:00,
2013-09-22 07:04:00,69.8,69.2,29.71,South,180,0.0,0.0,98,0.47, +RA,,0.67,WeatherDisplay:10.37,2013-09-22 11:04:00,
2013-09-22 07:09:00,69.8,69.2,29.71,South,180,4.0,4.0,98,0.48, +RA,,0.69,WeatherDisplay:10.37,2013-09-22 11:09:00,
2013-09-22 07:14:00,69.8,69.2,29.72,SW,225,3.5,3.5,98,0.47, +RA,,0.77,WeatherDisplay:10.37,2013-09-22 11:14:00,
2013-09-22 07:19:00,69.8,69.2,29.72,West,270,7.8,7.8,98,0.59, +RA,,0.86,WeatherDisplay:10.37,2013-09-22 11:19:00,
2013-09-22 07:25:00,70.2,69.6,29.72,SW,225,4.6,4.6,98,0.62, +RA,,0.90,WeatherDisplay:10.37,2013-09-22 11:25:00,
2013-09-22 07:30:00,69.8,69.2,29.72,SW,225,4.6,4.6,98,0.63, +RA,,0.97,WeatherDisplay:10.37,2013-09-22 11:30:00,
2013-09-22 07:35:00,69.6,69.0,29.73,WSW,248,4.0,4.0,98,0.63, +RA,,1.02,WeatherDisplay:10.37,2013-09-22 11:35:00,
2013-09-22 07:40:00,69.6,69.0,29.71,SW,225,4.0,4.0,98,0.63, +RA,,1.05,WeatherDisplay:10.37,2013-09-22 11:40:00,
2013-09-22 07:45:00,69.6,69.0,29.71,South,180,0.0,0.0,98,0.58, +RA,,1.09,WeatherDisplay:10.37,2013-09-22 11:45:00,
2013-09-22 07:50:00,69.6,69.0,29.70,SW,225,0.0,0.0,98,0.57, +RA,,1.10,WeatherDisplay:10.37,2013-09-22 11:50:00,
2013-09-22 07:55:00,69.6,69.0,29.70,East,90,0.0,0.0,98,0.55, +RA,,1.10,WeatherDisplay:10.37,2013-09-22 11:55:00,
2013-09-22 08:00:00,69.6,69.0,29.70,WSW,248,0.0,0.0,98,0.45, +RA,,1.10,WeatherDisplay:10.37,2013-09-22 12:00:00,
2013-09-22 08:05:00,69.6,69.0,29.70,ESE,112,0.0,0.0,98,0.44, +RA,,1.11,WeatherDisplay:10.37,2013-09-22 12:05:00,
2013-09-22 08:10:00,69.6,69.0,29.70,SW,225,3.1,3.1,98,0.42, +RA,,1.11,WeatherDisplay:10.37,2013-09-22 12:10:00,
2013-09-22 08:15:00,70.2,69.6,29.70,SW,225,3.5,3.5,98,0.40,-RA,,1.11,WeatherDisplay:10.37,2013-09-22 12:15:00,
2013-09-22 08:20:00,70.7,70.1,29.70,SW,225,0.0,0.5,98,0.26,-RA,,1.11,WeatherDisplay:10.37,2013-09-22 12:20:00,
2013-09-22 08:25:00,71.1,70.5,29.69,West,270,3.1,3.1,98,0.22,-RA,,1.11,WeatherDisplay:10.37,2013-09-22 12:25:00,
2013-09-22 08:30:00,71.8,71.2,29.69,West,270,4.6,4.6,98,0.16,-RA,,1.11,WeatherDisplay:10.37,2013-09-22 12:30:00,
2013-09-22 08:35:00,72.1,71.5,29.69,West,270,5.0,5.0,98,0.09,-RA,,1.11,WeatherDisplay:10.37,2013-09-22 12:35:00,
2013-09-22 08:40:00,72.0,71.4,29.69,WSW,248,4.6,4.6,98,0.07,-RA,,1.11,WeatherDisplay:10.37,2013-09-22 12:40:00,
2013-09-22 08:45:00,72.0,71.4,29.71,South,180,5.0,5.0,98,0.03,-RA,,1.11,WeatherDisplay:10.37,2013-09-22 12:45:00,
2013-09-22 08:50:00,72.0,71.4,29.71,WSW,248,4.6,4.6,98,0.01,-RA,,1.11,WeatherDisplay:10.37,2013-09-22 12:50:00,
2013-09-22 08:55:00,72.5,71.9,29.71,West,270,6.9,6.9,98,0.01,-RA,,1.11,WeatherDisplay:10.37,2013-09-22 12:55:00,
2013-09-22 09:00:00,73.0,72.4,29.71,WNW,292,6.9,6.9,98,0.01,-RA,,1.11,WeatherDisplay:10.37,2013-09-22 13:00:00,
2013-09-22 09:05:00,73.2,72.6,29.71,WSW,248,6.9,6.9,98,0.00,-RA,,1.11,WeatherDisplay:10.37,2013-09-22 13:05:00,
2013-09-22 09:10:00,73.2,72.6,29.71,SSW,202,9.2,9.2,98,0.00,-RA,,1.11,WeatherDisplay:10.37,2013-09-22 13:10:00,
2013-09-22 09:15:00,73.2,72.6,29.71,SW,225,5.8,5.8,98,0.00,-RA,,1.11,WeatherDisplay:10.37,2013-09-22 13:15:00,
2013-09-22 09:20:00,73.4,72.8,29.71,SSW,202,4.6,4.6,98,0.00,-RA,,1.11,WeatherDisplay:10.37,2013-09-22 13:20:00,
2013-09-22 09:25:00,73.6,73.0,29.71,SSW,202,5.8,5.8,98,0.00, +RA,,1.11,WeatherDisplay:10.37,2013-09-22 13:25:00,
2013-09-22 09:30:00,73.6,73.0,29.71,SW,225,4.6,4.6,98,0.00, +RA,,1.11,WeatherDisplay:10.37,2013-09-22 13:30:00,
2013-09-22 09:35:00,73.6,73.0,29.71,WSW,248,4.6,4.6,98,0.00, +RA,,1.11,WeatherDisplay:10.37,2013-09-22 13:35:00,
2013-09-22 09:40:00,73.6,73.0,29.71,SW,225,4.6,4.6,98,0.00, +RA,,1.11,WeatherDisplay:10.37,2013-09-22 13:40:00,
2013-09-22 09:45:00,73.8,73.2,29.71,SW,225,5.8,5.8,98,0.00,-RA,,1.11,WeatherDisplay:10.37,2013-09-22 13:45:00,
2013-09-22 09:50:00,73.8,73.2,29.71,South,180,3.5,3.5,98,0.00,-RA,,1.11,WeatherDisplay:10.37,2013-09-22 13:50:00,
2013-09-22 09:55:00,73.8,73.2,29.71,ESE,112,3.5,3.5,98,0.00,OVC,,1.11,WeatherDisplay:10.37,2013-09-22 13:55:00,
2013-09-22 10:00:00,73.8,73.2,29.71,SW,225,5.8,5.8,98,0.01,RA,,1.12,WeatherDisplay:10.37,2013-09-22 14:00:00,
2013-09-22 10:05:00,74.1,73.5,29.70,West,270,4.6,4.6,98,0.01,RA,,1.12,WeatherDisplay:10.37,2013-09-22 14:05:00,
2013-09-22 10:10:00,74.8,74.2,29.70,SSE,158,0.0,0.0,98,0.01,OVC,,1.12,WeatherDisplay:10.37,2013-09-22 14:10:00,
2013-09-22 10:15:00,75.2,73.7,29.70,WNW,292,8.8,8.8,95,0.01,-RA,,1.12,WeatherDisplay:10.37,2013-09-22 14:15:00,
2013-09-22 10:20:00,75.7,73.5,29.71,West,270,8.1,8.1,93,0.01,-RA,,1.12,WeatherDisplay:10.37,2013-09-22 14:20:00,
2013-09-22 10:25:00,76.1,73.3,29.71,SSW,202,3.5,3.5,91,0.01,-RA,,1.12,WeatherDisplay:10.37,2013-09-22 14:25:00,
2013-09-22 10:30:00,76.8,73.3,29.71,West,270,3.5,3.5,89,0.01,-RA,,1.12,WeatherDisplay:10.37,2013-09-22 14:30:00,
2013-09-22 10:35:00,78.1,73.2,29.71,West,270,8.8,8.8,85,0.01,-RA,,1.12,WeatherDisplay:10.37,2013-09-22 14:35:00,
2013-09-22 10:40:00,78.4,73.2,29.71,SW,225,8.1,8.1,84,0.01,-RA,,1.12,WeatherDisplay:10.37,2013-09-22 14:40:00,
2013-09-22 10:45:00,79.5,74.6,29.71,NNE,22,4.6,4.6,85,0.01, +RA,,1.12,WeatherDisplay:10.37,2013-09-22 14:45:00,
2013-09-22 10:50:00,79.9,73.5,29.71,NNE,22,8.1,8.1,81,0.01, +RA,,1.12,WeatherDisplay:10.37,2013-09-22 14:50:00,
2013-09-22 10:55:00,79.2,72.1,29.71,WNW,292,12.7,12.7,79,0.01, +RA,,1.12,WeatherDisplay:10.37,2013-09-22 14:55:00,
2013-09-22 11:00:00,79.2,72.1,29.71,NW,315,9.2,9.2,79,0.00, +RA,,1.12,WeatherDisplay:10.37,2013-09-22 15:00:00,
2013-09-22 11:05:00,79.3,72.2,29.71,NW,315,12.6,12.6,79,0.00,-RA,,1.12,WeatherDisplay:10.37,2013-09-22 15:05:00,
2013-09-22 11:10:00,79.3,72.6,29.70,NW,315,4.6,4.6,80,0.00,-RA,,1.12,WeatherDisplay:10.37,2013-09-22 15:10:00,
2013-09-22 11:15:00,79.3,71.8,29.71,NNW,338,9.2,9.2,78,0.00,-RA,,1.12,WeatherDisplay:10.37,2013-09-22 15:15:00,
2013-09-22 11:20:00,79.3,71.8,29.71,NNE,22,6.9,6.9,78,0.00,-RA,,1.12,WeatherDisplay:10.37,2013-09-22 15:20:00,
2013-09-22 11:25:00,79.5,73.2,29.71,West,270,3.5,3.5,81,0.00,OVC,,1.12,WeatherDisplay:10.37,2013-09-22 15:25:00,
2013-09-22 11:30:00,80.4,73.7,29.71,ESE,112,3.1,3.1,80,0.00,OVC,,1.12,WeatherDisplay:10.37,2013-09-22 15:30:00,
2013-09-22 11:35:00,80.4,72.9,29.71,South,180,3.5,3.5,78,0.00,OVC,,1.12,WeatherDisplay:10.37,2013-09-22 15:35:00,
2013-09-22 11:40:00,80.4,72.2,29.71,WNW,292,0.0,0.8,76,0.00,OVC,,1.12,WeatherDisplay:10.37,2013-09-22 15:40:00,
2013-09-22 11:45:00,80.4,71.8,29.71,NNW,338,5.9,5.9,75,0.00,OVC,,1.12,WeatherDisplay:10.37,2013-09-22 15:45:00,
2013-09-22 11:50:00,80.4,71.4,29.71,SW,225,9.2,9.2,74,0.00,OVC,,1.12,WeatherDisplay:10.37,2013-09-22 15:50:00,
2013-09-22 11:56:00,80.4,71.0,29.71,NNE,22,0.0,0.0,73,0.00,OVC,,1.12,WeatherDisplay:10.37,2013-09-22 15:56:00,
2013-09-22 12:01:00,80.4,71.8,29.71,NNW,338,0.0,0.0,75,0.00,OVC,,1.12,WeatherDisplay:10.37,2013-09-22 16:01:00,
2013-09-22 12:06:00,80.4,71.4,29.68,WSW,248,0.0,0.0,74,0.00,OVC,,1.12,WeatherDisplay:10.37,2013-09-22 16:06:00,
2013-09-22 12:11:00,80.4,71.0,29.68,SSW,202,0.0,0.0,73,0.00,OVC,,1.12,WeatherDisplay:10.37,2013-09-22 16:11:00,
2013-09-22 12:16:00,80.4,70.6,29.69,SSE,158,0.0,0.0,72,0.00,OVC,,1.12,WeatherDisplay:10.37,2013-09-22 16:16:00,
2013-09-22 12:21:00,80.4,69.8,29.69,SSE,158,0.0,0.0,70,0.00,OVC,,1.12,WeatherDisplay:10.37,2013-09-22 16:21:00,
2013-09-22 12:26:00,80.4,71.0,29.70,SW,225,0.0,0.0,73,0.00,BKN,,1.12,WeatherDisplay:10.37,2013-09-22 16:26:00,
2013-09-22 12:31:00,80.4,70.6,29.69,SSE,158,0.0,0.0,72,0.00,BKN,,1.12,WeatherDisplay:10.37,2013-09-22 16:31:00,
2013-09-22 12:36:00,80.4,70.2,29.70,SSE,158,0.0,0.0,71,0.00,BKN,,1.12,WeatherDisplay:10.37,2013-09-22 16:36:00,
2013-09-22 12:41:00,80.4,70.2,29.70,West,270,0.0,0.0,71,0.00,BKN,,1.12,WeatherDisplay:10.37,2013-09-22 16:41:00,
2013-09-22 12:46:00,80.4,69.8,29.70,SSE,158,4.0,4.0,70,0.00,RA,,0.57,WeatherDisplay:10.37,2013-09-22 16:46:00,
2013-09-22 12:51:00,80.4,71.0,29.70,NW,315,6.9,6.9,73,0.00,RA,,0.57,WeatherDisplay:10.37,2013-09-22 16:51:00,
2013-09-22 12:56:00,80.4,72.2,29.69,East,90,6.9,6.9,76,0.00,BKN,,0.57,WeatherDisplay:10.37,2013-09-22 16:56:00,
2013-09-22 13:01:00,79.9,72.4,29.68,NE,45,8.1,8.1,78,0.00,BKN,,0.57,WeatherDisplay:10.37,2013-09-22 17:01:00,
2013-09-22 13:06:00,79.7,72.6,29.68,SW,225,6.9,6.9,79,0.00,BKN,,0.57,WeatherDisplay:10.37,2013-09-22 17:06:00,
2013-09-22 13:11:00,79.3,72.2,29.68,NW,315,5.8,5.8,79,0.00,BKN,,0.57,WeatherDisplay:10.37,2013-09-22 17:11:00,
2013-09-22 13:16:00,78.8,72.5,29.68,SSE,158,0.0,0.0,81,0.00,BKN,,0.57,WeatherDisplay:10.37,2013-09-22 17:16:00,
2013-09-22 13:21:00,78.3,72.0,29.68,NE,45,12.6,12.6,81,0.00,CLR,,0.57,WeatherDisplay:10.37,2013-09-22 17:21:00,
2013-09-22 13:26:00,78.1,72.2,29.68,NE,45,11.6,11.6,82,0.00,CLR,,0.57,WeatherDisplay:10.37,2013-09-22 17:26:00,
2013-09-22 13:31:00,78.4,72.4,29.68,ESE,112,3.1,3.1,82,0.00,CLR,,0.57,WeatherDisplay:10.37,2013-09-22 17:31:00,
2013-09-22 13:36:00,79.2,73.2,29.70,NNW,338,3.5,0.0,82,0.00,CLR,,0.57,WeatherDisplay:10.37,2013-09-22 17:36:00,
2013-09-22 13:41:00,79.0,72.3,29.70,NE,45,5.8,5.8,80,0.00,CLR,,0.57,WeatherDisplay:10.37,2013-09-22 17:41:00,
2013-09-22 13:46:00,79.2,72.5,29.70,ENE,68,6.9,6.9,80,0.00,CLR,,0.57,WeatherDisplay:10.37,2013-09-22 17:46:00,
2013-09-22 13:51:00,79.0,72.3,29.70,NNE,22,4.0,4.0,80,0.00,CLR,,0.57,WeatherDisplay:10.37,2013-09-22 17:51:00,
2013-09-22 13:57:00,79.0,72.7,29.70,East,90,6.9,6.9,81,0.00,CLR,,0.57,WeatherDisplay:10.37,2013-09-22 17:57:00,
2013-09-22 14:02:00,78.8,72.1,29.68,East,90,8.8,8.8,80,0.00,OVC,,0.57,WeatherDisplay:10.37,2013-09-22 18:02:00,
2013-09-22 14:07:00,78.4,72.1,29.68,NW,315,8.8,8.8,81,0.00,OVC,,0.57,WeatherDisplay:10.37,2013-09-22 18:07:00,
2013-09-22 14:12:00,77.9,71.6,29.68,NNE,22,8.1,8.1,81,0.00,OVC,,0.57,WeatherDisplay:10.37,2013-09-22 18:12:00,
2013-09-22 14:17:00,77.0,71.4,29.68,NW,315,15.0,15.0,83,0.00,OVC,,0.57,WeatherDisplay:10.37,2013-09-22 18:17:00,
2013-09-22 14:22:00,77.2,71.6,29.68,ESE,112,10.4,10.4,83,0.00,OVC,,0.57,WeatherDisplay:10.37,2013-09-22 18:22:00,
2013-09-22 14:27:00,76.8,71.2,29.68,ESE,112,19.2,19.2,83,0.00,OVC,,0.57,WeatherDisplay:10.37,2013-09-22 18:27:00,
2013-09-22 14:32:00,76.8,71.2,29.68,WNW,292,8.1,8.1,83,0.00,OVC,,0.57,WeatherDisplay:10.37,2013-09-22 18:32:00,
2013-09-22 14:37:00,76.8,71.2,29.67,West,270,10.7,10.7,83,0.00,OVC,,0.57,WeatherDisplay:10.37,2013-09-22 18:37:00,
2013-09-22 14:42:00,76.5,71.3,29.68,ESE,112,15.0,15.0,84,0.00,OVC,,0.57,WeatherDisplay:10.37,2013-09-22 18:42:00,
2013-09-22 14:47:00,76.1,70.9,29.68,NW,315,17.3,17.3,84,0.00,OVC,,0.57,WeatherDisplay:10.37,2013-09-22 18:47:00,
2013-09-22 14:52:00,75.7,70.5,29.68,ESE,112,16.4,16.4,84,0.00,OVC,,0.57,WeatherDisplay:10.37,2013-09-22 18:52:00,
2013-09-22 14:57:00,75.7,70.5,29.66,West,270,9.2,9.2,84,0.00,OVC,,0.57,WeatherDisplay:10.37,2013-09-22 18:57:00,
2013-09-22 15:02:00,75.6,70.8,29.68,NE,45,9.2,9.2,85,0.00,OVC,,0.57,WeatherDisplay:10.37,2013-09-22 19:02:00,
2013-09-22 15:07:00,75.2,70.4,29.68,NE,45,15.0,15.0,85,0.00,OVC,,0.57,WeatherDisplay:10.37,2013-09-22 19:07:00,
2013-09-22 15:12:00,75.0,70.2,29.67,North,360,11.5,11.5,85,0.00,-RA,,0.57,WeatherDisplay:10.37,2013-09-22 19:12:00,
2013-09-22 15:17:00,74.8,70.3,29.67,WNW,292,8.8,8.8,86,0.00,-RA,,0.57,WeatherDisplay:10.37,2013-09-22 19:17:00,
2013-09-22 15:22:00,74.8,70.3,29.67,NNW,338,9.2,9.2,86,0.00,-RA,,0.57,WeatherDisplay:10.37,2013-09-22 19:22:00,
2013-09-22 15:27:00,74.7,70.2,29.67,ENE,68,10.7,10.7,86,0.00,-RA,,0.57,WeatherDisplay:10.37,2013-09-22 19:27:00,
2013-09-22 15:32:00,74.7,70.2,29.66,South,180,11.6,11.6,86,0.00,-RA,,0.57,WeatherDisplay:10.37,2013-09-22 19:32:00,
2013-09-22 15:37:00,74.7,70.2,29.67,East,90,16.4,16.4,86,0.00,-RA,,0.57,WeatherDisplay:10.37,2013-09-22 19:37:00,
2013-09-22 15:42:00,74.7,70.2,29.67,North,360,10.4,10.4,86,0.00,-RA,,0.57,WeatherDisplay:10.37,2013-09-22 19:42:00,
2013-09-22 15:47:00,74.7,70.2,29.67,SSE,158,13.5,13.5,86,0.00,-RA,,0.57,WeatherDisplay:10.37,2013-09-22 19:47:00,
2013-09-22 15:52:00,74.8,70.0,29.68,West,270,14.5,14.5,85,0.00,OVC,,0.57,WeatherDisplay:10.37,2013-09-22 19:52:00,
2013-09-22 15:58:00,74.5,69.7,29.67,NNW,338,15.0,15.0,85,0.00,OVC,,0.57,WeatherDisplay:10.37,2013-09-22 19:58:00,
2013-09-22 16:03:00,74.3,69.5,29.68,ESE,112,15.0,15.0,85,0.00,OVC,,0.57,WeatherDisplay:10.37,2013-09-22 20:03:00,
2013-09-22 16:08:00,74.3,69.8,29.68,North,360,13.8,13.8,86,0.00,OVC,,0.57,WeatherDisplay:10.37,2013-09-22 20:08:00,
2013-09-22 16:13:00,74.1,69.6,29.67,WNW,292,15.0,15.0,86,0.00,OVC,,0.57,WeatherDisplay:10.37,2013-09-22 20:13:00,
2013-09-22 16:18:00,73.9,69.4,29.68,NE,45,15.0,15.0,86,0.00,OVC,,0.57,WeatherDisplay:10.37,2013-09-22 20:18:00,
2013-09-22 16:23:00,73.8,69.3,29.68,NW,315,11.6,11.6,86,0.00,OVC,,0.57,WeatherDisplay:10.37,2013-09-22 20:23:00,
2013-09-22 16:28:00,73.6,69.2,29.68,North,360,15.4,15.4,86,0.00,OVC,,0.57,WeatherDisplay:10.37,2013-09-22 20:28:00,
2013-09-22 16:33:00,73.2,69.1,29.68,North,360,15.0,15.0,87,0.00,OVC,,0.57,WeatherDisplay:10.37,2013-09-22 20:33:00,
2013-09-22 16:38:00,73.2,69.1,29.68,NNW,338,15.0,15.0,87,0.00,OVC,,0.57,WeatherDisplay:10.37,2013-09-22 20:38:00,
2013-09-22 16:43:00,73.0,68.9,29.68,WNW,292,13.8,13.8,87,0.00,OVC,,0.57,WeatherDisplay:10.37,2013-09-22 20:43:00,
2013-09-22 16:48:00,72.9,69.1,29.68,NNW,338,13.8,13.8,88,0.00,OVC,,0.57,WeatherDisplay:10.37,2013-09-22 20:48:00,
2013-09-22 16:53:00,72.5,68.7,29.68,NW,315,15.4,15.4,88,0.00,OVC,,0.57,WeatherDisplay:10.37,2013-09-22 20:53:00,
2013-09-22 16:58:00,72.3,68.5,29.68,ENE,68,15.0,15.0,88,0.00,OVC,,0.57,WeatherDisplay:10.37,2013-09-22 20:58:00,
2013-09-22 17:03:00,72.1,68.7,29.68,NNW,338,27.8,27.8,89,0.00,OVC,,0.57,WeatherDisplay:10.37,2013-09-22 21:03:00,
2013-09-22 17:08:00,72.0,68.6,29.68,NNE,22,12.7,12.7,89,0.00,OVC,,0.57,WeatherDisplay:10.37,2013-09-22 21:08:00,
2013-09-22 17:13:00,71.8,68.7,29.68,NE,45,26.5,26.5,90,0.00,OVC,,0.57,WeatherDisplay:10.37,2013-09-22 21:13:00,
2013-09-22 17:18:00,71.8,68.7,29.68,NE,45,20.7,20.7,90,0.00,OVC,,0.57,WeatherDisplay:10.37,2013-09-22 21:18:00,
2013-09-22 17:24:00,71.2,68.4,29.69,West,270,16.1,16.1,91,0.00,OVC,,0.57,WeatherDisplay:10.37,2013-09-22 21:24:00,
2013-09-22 17:29:00,70.9,68.1,29.69,WNW,292,16.4,16.4,91,0.00,OVC,,0.57,WeatherDisplay:10.37,2013-09-22 21:29:00,
2013-09-22 17:34:00,70.5,68.1,29.69,North,360,12.7,12.7,92,0.00,OVC,,0.57,WeatherDisplay:10.37,2013-09-22 21:34:00,
2013-09-22 17:39:00,70.3,67.9,29.69,East,90,17.3,17.3,92,0.00,OVC,,0.57,WeatherDisplay:10.37,2013-09-22 21:39:00,
2013-09-22 17:44:00,70.3,67.9,29.70,North,360,13.8,13.8,92,0.00,-RA,,0.57,WeatherDisplay:10.37,2013-09-22 21:44:00,
2013-09-22 17:49:00,70.2,68.1,29.70,West,270,17.3,17.3,93,0.00,-RA,,0.57,WeatherDisplay:10.37,2013-09-22 21:49:00,
2013-09-22 17:54:00,70.0,67.9,29.70,NNE,22,11.5,11.5,93,0.00,-RA,,0.57,WeatherDisplay:10.37,2013-09-22 21:54:00,
2013-09-22 17:59:00,70.0,67.9,29.70,ENE,68,20.7,20.7,93,0.00,-RA,,0.57,WeatherDisplay:10.37,2013-09-22 21:59:00,
2013-09-22 18:04:00,69.8,67.7,29.70,NW,315,17.3,17.3,93,0.00,-RA,,0.57,WeatherDisplay:10.37,2013-09-22 22:04:00,
2013-09-22 18:09:00,69.8,67.7,29.71,WNW,292,16.1,16.1,93,0.00,-RA,,0.57,WeatherDisplay:10.37,2013-09-22 22:09:00,
2013-09-22 18:14:00,69.6,67.5,29.71,South,180,15.0,15.0,93,0.00,OVC,,0.57,WeatherDisplay:10.37,2013-09-22 22:14:00,
2013-09-22 18:19:00,69.6,67.5,29.71,East,90,15.0,15.0,93,0.00,OVC,,0.57,WeatherDisplay:10.37,2013-09-22 22:19:00,
2013-09-22 18:24:00,69.6,67.5,29.71,ENE,68,9.2,9.2,93,0.00,OVC,,0.57,WeatherDisplay:10.37,2013-09-22 22:24:00,
2013-09-22 18:29:00,69.4,67.3,29.71,NE,45,17.3,17.3,93,0.00,OVC,,0.57,WeatherDisplay:10.37,2013-09-22 22:29:00,
2013-09-22 18:35:00,69.4,67.3,29.71,NW,315,20.7,20.7,93,0.00,OVC,,0.57,WeatherDisplay:10.37,2013-09-22 22:35:00,
2013-09-22 18:40:00,69.4,67.3,29.72,WNW,292,13.8,13.8,93,0.00,OVC,,0.57,WeatherDisplay:10.37,2013-09-22 22:40:00,
2013-09-22 18:45:00,69.4,67.0,29.72,NW,315,17.3,17.3,92,0.00,OVC,,0.57,WeatherDisplay:10.37,2013-09-22 22:45:00,
2013-09-22 18:50:00,69.4,67.0,29.72,NW,315,15.0,15.0,92,0.00,OVC,,0.57,WeatherDisplay:10.37,2013-09-22 22:50:00,
2013-09-22 18:55:00,69.4,67.0,29.72,NNW,338,11.5,11.5,92,0.00,OVC,,0.57,WeatherDisplay:10.37,2013-09-22 22:55:00,
2013-09-22 19:00:00,69.4,66.7,29.71,NE,45,16.1,16.1,91,0.00,OVC,,0.57,WeatherDisplay:10.37,2013-09-22 23:00:00,
2013-09-22 19:05:00,69.4,66.7,29.71,East,90,16.1,16.1,91,0.00,OVC,,0.57,WeatherDisplay:10.37,2013-09-22 23:05:00,
2013-09-22 19:10:00,69.4,66.3,29.71,NW,315,16.1,16.1,90,0.00,OVC,,0.57,WeatherDisplay:10.37,2013-09-22 23:10:00,
2013-09-22 19:15:00,69.4,66.3,29.73,ENE,68,15.0,15.0,90,0.00,OVC,,0.57,WeatherDisplay:10.37,2013-09-22 23:15:00,
2013-09-22 19:20:00,69.4,66.3,29.73,NE,45,15.0,15.0,90,0.00,OVC,,0.57,WeatherDisplay:10.37,2013-09-22 23:20:00,
2013-09-22 19:25:00,69.4,66.3,29.73,SE,135,19.6,19.6,90,0.00,OVC,,0.57,WeatherDisplay:10.37,2013-09-22 23:25:00,
2013-09-22 19:30:00,69.6,66.2,29.73,NNW,338,11.5,11.5,89,0.00,OVC,,0.57,WeatherDisplay:10.37,2013-09-22 23:30:00,
2013-09-22 19:35:00,69.6,66.2,29.73,West,270,12.7,12.7,89,0.00,OVC,,0.57,WeatherDisplay:10.37,2013-09-22 23:35:00,
2013-09-22 19:40:00,69.6,66.2,29.74,WNW,292,19.6,19.6,89,0.00,OVC,,0.57,WeatherDisplay:10.37,2013-09-22 23:40:00,
2013-09-22 19:45:00,69.6,66.2,29.74,NNW,338,13.8,13.8,89,0.00,OVC,,0.57,WeatherDisplay:10.37,2013-09-22 23:45:00,
2013-09-22 19:50:00,69.6,66.2,29.73,NW,315,16.1,16.1,89,0.00,OVC,,0.57,WeatherDisplay:10.37,2013-09-22 23:50:00,
2013-09-22 19:55:00,69.6,66.2,29.73,WNW,292,12.7,12.7,89,0.00,OVC,,0.57,WeatherDisplay:10.37,2013-09-22 23:55:00,
2013-09-22 20:00:00,69.6,66.2,29.73,NNW,338,15.0,15.0,89,0.00,OVC,,0.57,WeatherDisplay:10.37,2013-09-23 00:00:00,
2013-09-22 20:05:00,69.6,65.9,29.75,NW,315,19.6,19.6,88,0.00,OVC,,0.57,WeatherDisplay:10.37,2013-09-23 00:05:00,
2013-09-22 20:10:00,69.6,65.6,29.75,NW,315,13.8,13.8,87,0.00,OVC,,0.57,WeatherDisplay:10.37,2013-09-23 00:10:00,
2013-09-22 20:15:00,69.8,65.4,29.75,NNW,338,23.0,23.0,86,0.00,OVC,,0.57,WeatherDisplay:10.37,2013-09-23 00:15:00,
2013-09-22 20:20:00,69.8,65.4,29.75,East,90,18.4,18.4,86,0.00,OVC,,0.57,WeatherDisplay:10.37,2013-09-23 00:20:00,
2013-09-22 20:25:00,69.8,65.4,29.75,North,360,16.1,16.1,86,0.00,OVC,,0.57,WeatherDisplay:10.37,2013-09-23 00:25:00,
2013-09-22 20:30:00,69.6,65.2,29.75,NNE,22,11.5,11.5,86,0.00,OVC,,0.57,WeatherDisplay:10.37,2013-09-23 00:30:00,
2013-09-22 20:35:00,69.6,65.6,29.75,North,360,15.0,15.0,87,0.00,OVC,,0.57,WeatherDisplay:10.37,2013-09-23 00:35:00,
2013-09-22 20:40:00,69.6,65.6,29.76,NE,45,16.1,16.1,87,0.00,OVC,,0.57,WeatherDisplay:10.37,2013-09-23 00:40:00,
2013-09-22 20:45:00,69.6,65.2,29.76,West,270,19.6,19.6,86,0.00,OVC,,0.57,WeatherDisplay:10.37,2013-09-23 00:45:00,
2013-09-22 20:50:00,69.6,64.9,29.77,NW,315,19.6,19.6,85,0.00,OVC,,0.57,WeatherDisplay:10.37,2013-09-23 00:50:00,
2013-09-22 20:55:00,69.6,64.9,29.77,NE,45,19.2,19.2,85,0.00,OVC,,0.57,WeatherDisplay:10.37,2013-09-23 00:55:00,
2013-09-22 21:01:00,69.4,64.4,29.77,ESE,112,15.0,15.0,84,0.00,OVC,,0.57,WeatherDisplay:10.37,2013-09-23 01:01:00,
2013-09-22 21:06:00,69.4,64.4,29.77,ESE,112,20.7,20.7,84,0.00,OVC,,0.57,WeatherDisplay:10.37,2013-09-23 01:06:00,
2013-09-22 21:11:00,69.4,64.0,29.77,NNE,22,15.0,15.0,83,0.00,OVC,,0.57,WeatherDisplay:10.37,2013-09-23 01:11:00,
2013-09-22 21:16:00,69.4,63.7,29.77,East,90,13.8,13.8,82,0.00,OVC,,0.57,WeatherDisplay:10.37,2013-09-23 01:16:00,
2013-09-22 21:21:00,69.4,63.7,29.77,ENE,68,10.4,10.4,82,0.00,OVC,,0.57,WeatherDisplay:10.37,2013-09-23 01:21:00,
2013-09-22 21:26:00,69.4,63.3,29.78,East,90,20.7,20.7,81,0.00,OVC,,0.57,WeatherDisplay:10.37,2013-09-23 01:26:00,
2013-09-22 21:31:00,69.4,63.0,29.78,East,90,12.6,12.6,80,0.00,OVC,,0.57,WeatherDisplay:10.37,2013-09-23 01:31:00,
2013-09-22 21:36:00,69.4,62.6,29.78,NE,45,11.5,11.5,79,0.00,OVC,,0.57,WeatherDisplay:10.37,2013-09-23 01:36:00,
2013-09-22 21:41:00,69.4,62.6,29.78,WNW,292,9.2,9.2,79,0.00,OVC,,0.57,WeatherDisplay:10.37,2013-09-23 01:41:00,
2013-09-22 21:46:00,69.4,62.6,29.78,NNE,22,21.9,21.9,79,0.00,OVC,,0.57,WeatherDisplay:10.37,2013-09-23 01:46:00,
2013-09-22 21:51:00,69.4,62.6,29.78,WNW,292,11.6,11.6,79,0.00,OVC,,0.57,WeatherDisplay:10.37,2013-09-23 01:51:00,
2013-09-22 21:56:00,69.4,62.6,29.78,North,360,15.4,15.4,79,0.00,OVC,,0.57,WeatherDisplay:10.37,2013-09-23 01:56:00,
2013-09-22 22:01:00,69.4,62.2,29.78,WNW,292,13.8,13.8,78,0.00,OVC,,0.57,WeatherDisplay:10.37,2013-09-23 02:01:00,
2013-09-22 22:06:00,69.6,62.1,29.79,West,270,19.6,19.6,77,0.00,OVC,,0.57,WeatherDisplay:10.37,2013-09-23 02:06:00,
2013-09-22 22:11:00,69.6,62.4,29.80,NNE,22,18.3,18.3,78,0.00,OVC,,0.57,WeatherDisplay:10.37,2013-09-23 02:11:00,
2013-09-22 22:16:00,69.6,62.4,29.79,ENE,68,13.8,13.8,78,0.00,OVC,,0.57,WeatherDisplay:10.37,2013-09-23 02:16:00,
2013-09-22 22:21:00,69.6,62.4,29.80,East,90,11.6,11.6,78,0.00,OVC,,0.57,WeatherDisplay:10.37,2013-09-23 02:21:00,
2013-09-22 22:26:00,69.6,62.4,29.80,ENE,68,15.0,15.0,78,0.00,OVC,,0.57,WeatherDisplay:10.37,2013-09-23 02:26:00,
2013-09-22 22:31:00,69.6,62.4,29.80,NNE,22,10.4,10.4,78,0.00,OVC,,0.57,WeatherDisplay:10.37,2013-09-23 02:31:00,
2013-09-22 22:36:00,69.6,62.4,29.80,West,270,10.4,10.6,78,0.00,OVC,,0.57,WeatherDisplay:10.37,2013-09-23 02:36:00,
2013-09-22 22:41:00,69.6,62.1,29.80,NE,45,16.1,16.1,77,0.00,OVC,,0.57,WeatherDisplay:10.37,2013-09-23 02:41:00,
2013-09-22 22:46:00,69.6,62.4,29.80,NE,45,9.2,10.2,78,0.00,OVC,,0.57,WeatherDisplay:10.37,2013-09-23 02:46:00,
2013-09-22 22:52:00,69.6,62.1,29.81,NNW,338,18.4,18.4,77,0.00,OVC,,0.57,WeatherDisplay:10.37,2013-09-23 02:52:00,
2013-09-22 22:57:00,69.6,62.1,29.81,North,360,8.1,8.1,77,0.00,OVC,,0.57,WeatherDisplay:10.37,2013-09-23 02:57:00,
2013-09-22 23:02:00,69.6,62.1,29.81,ENE,68,18.3,18.3,77,0.00,OVC,,0.57,WeatherDisplay:10.37,2013-09-23 03:02:00,
2013-09-22 23:07:00,69.6,62.1,29.81,SE,135,9.2,9.2,77,0.00,OVC,,0.57,WeatherDisplay:10.37,2013-09-23 03:07:00,
2013-09-22 23:12:00,69.6,62.4,29.82,North,360,15.4,15.4,78,0.00,OVC,,0.57,WeatherDisplay:10.37,2013-09-23 03:12:00,
2013-09-22 23:17:00,69.6,62.4,29.82,NNE,22,16.4,16.4,78,0.00,OVC,,0.57,WeatherDisplay:10.37,2013-09-23 03:17:00,
2013-09-22 23:22:00,69.6,62.4,29.82,East,90,21.9,21.9,78,0.00,OVC,,0.57,WeatherDisplay:10.37,2013-09-23 03:22:00,
2013-09-22 23:27:00,69.6,62.8,29.81,ESE,112,12.7,12.7,79,0.00,OVC,,0.57,WeatherDisplay:10.37,2013-09-23 03:27:00,
2013-09-22 23:32:00,69.6,62.8,29.82,East,90,15.0,15.0,79,0.00,OVC,,0.57,WeatherDisplay:10.37,2013-09-23 03:32:00,
2013-09-22 23:37:00,69.6,63.2,29.82,East,90,9.2,9.2,80,0.00,OVC,,0.57,WeatherDisplay:10.37,2013-09-23 03:37:00,
2013-09-22 23:42:00,69.6,63.2,29.82,East,90,9.7,9.7,80,0.00,OVC,,0.57,WeatherDisplay:10.37,2013-09-23 03:42:00,
2013-09-22 23:47:00,69.6,63.2,29.82,WSW,248,8.8,8.8,80,0.00,OVC,,0.57,WeatherDisplay:10.37,2013-09-23 03:47:00,
2013-09-22 23:52:00,69.6,63.2,29.82,NW,315,13.8,13.8,80,0.00,OVC,,0.57,WeatherDisplay:10.37,2013-09-23 03:52:00,
2013-09-22 23:57:00,69.6,63.5,29.82,NNW,338,17.3,17.3,81,0.00,OVC,,0.57,WeatherDisplay:10.37,2013-09-23 03:57:00,